FW9469 Weather Reports


time (UTC)temp
F
wind
direction
speed
knots
gust
knots
rain 1hr
in
rain 24hr
in
rain mn
in
humidity
%
barometer
mb
20260505171601 75 157 4.3 11.3 0.00 0.00 0.00 44 1016.8
20260505170055 75 154 2.6 11.3 0.00 0.00 0.00 45 1016.8
20260505164617 74 246 4.3 12.2 0.00 0.00 0.00 46 1016.8
20260505163101 73 215 3.5 8.7 0.00 0.00 0.00 49 1016.7
20260505161553 72 189 4.3 9.6 0.00 0.00 0.00 50 1017.1
20260505153052 68 141 4.3 7.8 0.00 0.00 0.00 54 1017.5
20260505151555 68 211 1.7 4.3 0.00 0.00 0.00 55 1017.6
20260505130108 58 0 0.0 1.7 0.00 0.00 0.00 72 1017.1
20260505124559 56 76 0.0 1.7 0.00 0.00 0.00 75 1017.1
20260505123105 55 0 0.0 0.9 0.00 0.00 0.00 79 1017.2
20260505121553 53 0 0.0 0.0 0.00 0.00 0.00 83 1017.0
20260505120108 51 0 0.9 2.6 0.00 0.00 0.00 88 1016.6
20260505114552 49 0 0.0 0.0 0.00 0.00 0.00 89 1016.4
20260505113055 48 0 0.0 1.7 0.00 0.00 0.00 90 1016.3
20260505111552 47 0 0.0 0.9 0.00 0.00 0.00 90 1016.2
20260505101550 48 117 0.0 1.7 0.00 0.00 0.00 88 1015.9
20260505100057 48 117 0.0 1.7 0.00 0.00 0.00 89 1015.9
20260505094555 48 0 0.0 3.5 0.00 0.00 0.00 89 1015.8
20260505093052 48 0 0.0 1.7 0.00 0.00 0.00 89 1015.8
20260505091549 48 0 0.0 2.6 0.00 0.00 0.00 88 1015.8
20260505090053 49 0 0.0 5.2 0.00 0.00 0.00 88 1015.7
20260505084551 49 0 0.0 6.1 0.00 0.00 0.00 89 1015.7
20260505083052 48 128 1.7 3.5 0.00 0.00 0.00 89 1015.8
20260505081553 49 0 0.0 0.0 0.00 0.00 0.00 89 1015.6
20260505080104 49 0 0.0 0.0 0.00 0.00 0.00 89 1015.5
20260505074552 49 0 0.0 0.0 0.00 0.00 0.00 88 1015.4
20260505073052 50 0 0.0 0.9 0.00 0.00 0.00 88 1015.4
20260505071555 50 0 0.0 0.9 0.00 0.00 0.00 88 1015.4
20260505070055 51 0 0.0 0.9 0.00 0.00 0.00 87 1015.5
20260505064550 51 0 0.0 0.9 0.00 0.00 0.00 87 1015.6
20260505063054 51 0 0.0 0.0 0.00 0.00 0.00 86 1015.8
20260505061558 51 0 0.0 0.0 0.00 0.00 0.00 86 1015.8
20260505060058 52 0 0.0 0.0 0.00 0.00 0.00 85 1015.8
20260505054554 52 0 0.0 0.0 0.00 0.00 0.00 84 1015.7
20260505053103 53 0 0.0 1.7 0.00 0.00 0.00 83 1015.8
20260505051553 53 0 0.0 1.7 0.00 0.00 0.00 82 1015.8
20260505041554 56 0 0.0 0.0 0.00 0.00 0.00 76 1015.7
20260505040105 57 0 0.0 0.0 0.00 0.00 0.00 73 1015.8
20260505034552 58 0 0.0 0.0 0.00 0.00 0.00 73 1015.8
20260505033049 59 0 0.0 0.0 0.00 0.00 0.00 68 1015.9
20260505031558 60 0 0.0 0.0 0.00 0.00 0.00 65 1015.8
20260505030100 62 0 0.0 0.0 0.00 0.00 0.00 61 1015.8
20260505024555 64 0 0.0 1.7 0.00 0.00 0.00 55 1015.9
20260505023056 64 182 0.9 2.6 0.00 0.00 0.00 56 1015.9
20260505021557 65 180 0.9 4.3 0.00 0.00 0.00 55 1015.6
20260505020056 65 195 0.9 2.6 0.00 0.00 0.00 55 1015.5
20260505014558 65 185 0.9 3.5 0.00 0.00 0.00 56 1015.4
20260505013051 65 0 0.9 2.6 0.00 0.00 0.00 59 1015.3
20260505011554 64 0 0.0 0.0 0.00 0.00 0.00 63 1015.2
20260505010058 65 0 0.0 0.0 0.00 0.00 0.00 61 1015.1
20260505004552 68 0 0.0 0.0 0.00 0.00 0.00 55 1014.9
20260505003050 69 0 0.0 0.9 0.00 0.00 0.00 52 1014.8
20260505001550 70 0 0.9 3.5 0.00 0.00 0.00 49 1014.8
20260505000100 71 167 0.0 2.6 0.00 0.00 0.00 47 1014.8
20260504234554 72 167 0.9 3.5 0.00 0.00 0.00 47 1014.6
20260504233053 72 165 0.0 4.3 0.00 0.00 0.00 46 1014.4
20260504231548 73 171 0.9 3.5 0.00 0.00 0.00 45 1014.4
20260504230052 73 169 1.7 5.2 0.00 0.00 0.00 45 1014.4
20260504224552 74 164 4.3 9.6 0.00 0.00 0.00 42 1014.3
20260504223056 75 156 0.9 8.7 0.00 0.00 0.00 42 1014.4
20260504221554 75 166 2.6 8.7 0.00 0.00 0.00 41 1014.4
20260504220110 76 150 1.7 6.1 0.00 0.00 0.00 39 1014.4
20260504214554 76 149 0.9 4.3 0.00 0.00 0.00 39 1014.5
20260504213059 75 157 1.7 6.1 0.00 0.00 0.00 41 1014.4
20260504211556 75 221 1.7 6.1 0.00 0.00 0.00 40 1014.5
20260504210055 75 155 2.6 9.6 0.00 0.00 0.00 40 1014.5
20260504204552 75 184 3.5 8.7 0.00 0.00 0.00 39 1014.6
20260504203053 76 198 4.3 9.6 0.00 0.00 0.00 37 1014.7
20260504201551 76 135 2.6 7.8 0.00 0.00 0.00 38 1014.6
20260504200101 76 155 2.6 10.4 0.00 0.00 0.00 37 1014.7
20260504194556 75 139 6.1 9.6 0.00 0.00 0.00 38 1015.0
20260504193052 76 133 7.0 11.3 0.00 0.00 0.00 38 1015.0
20260504191559 75 288 5.2 12.2 0.00 0.00 0.00 40 1015.3
20260504190108 75 153 6.1 10.4 0.00 0.00 0.00 37 1015.4
20260504184611 75 145 1.7 7.0 0.00 0.00 0.00 37 1015.7
20260504183059 74 204 1.7 6.1 0.00 0.00 0.00 36 1015.9
20260504181556 74 342 1.7 7.0 0.00 0.00 0.00 37 1016.0
20260504180052 73 140 7.0 10.4 0.00 0.00 0.00 38 1016.3
20260504174552 72 180 6.1 9.6 0.00 0.00 0.00 38 1016.5
20260504173057 72 136 3.5 9.6 0.00 0.00 0.00 39 1016.7